Regional Weather Roundup
Issued by NWS

Home | Current Version | Previous Version | Text Only | Print | Product List | Glossary On
Versions: 1 2 3 4 5 6 7 8 9 10 11 12 13 14 15 16 17 18 19 20 21 22 23 24 25 26 27 28 29 30 31 32 33 34 35 36 37 38 39 40 41 42 43 44 45 46 47 48 49 50
000
ASUS44 KLUB 300201
RWRTX
WEST TEXAS WEATHER ROUNDUP
NATIONAL WEATHER SERVICE LUBBOCK TX
900 PM CDT MON JUN 29 2015

NOTE: "FAIR" INDICATES FEW OR NO CLOUDS BELOW 12,000 FEET WITH NO
SIGNIFICANT WEATHER AND/OR OBSTRUCTIONS TO VISIBILITY.

TXZ004-006>008-010-012-014-016-OKZ002-300300-
TEXAS PANHANDLE/OKLAHOMA PANHANDLE

CITY           SKY/WX    TMP DP  RH WIND       PRES   REMARKS
AMARILLO       CLEAR     75  58  55 SE9       30.11R
BORGER         CLEAR     83  64  52 NE6       30.06R
CANADIAN       CLEAR     83  61  47 E6        30.01R
DALHART        CLEAR     80  54  40 W6        30.14R
DUMAS          CLEAR     78  62  56 CALM      30.11R
GUYMON         PTCLDY    82  54  37 E3        30.06R
$$

TXZ026-029-035-045-048-300300-
SOUTHERN PANHANDLE/SOUTH PLAINS/ROLLING PLAINS

CITY           SKY/WX    TMP DP  RH WIND       PRES   REMARKS
CHILDRESS      CLOUDY    86  62  44 NW9       29.96R THUNDER
LUBBOCK        CLOUDY    74  60  61 E6        30.06S
$$

TXZ052-054-060>062-072-078-127-140-154-169-300300-
PERMIAN BASIN/CONCHO VALLEY/BIG COUNTRY/EDWARDS PLATEAU

CITY           SKY/WX    TMP DP  RH WIND       PRES   REMARKS
ABILENE        MOCLDY    86  68  54 SE9       29.98R
BIG SPRING     CLOUDY    90  57  32 SE7       30.02R
JUNCTION       PTCLDY    83  67  58 S5        29.98R
MIDLAND        CLOUDY    89  57  33 SE8       30.00R
ODESSA         CLOUDY    89  53  29 SE8       30.02R
SAN ANGELO     PTCLDY    83  69  62 S6        29.96R
SWEETWATER     MOCLDY    85  63  47 S5        30.02R
WINK           CLOUDY    90  55  30 E7        29.97R
$$

TXZ055-058-074-075-080-082-300300-
FAR WEST/SOUTHWEST MOUNTAINS/TRANS PECOS

CITY           SKY/WX    TMP DP  RH WIND       PRES   REMARKS
ALPINE         CLEAR     81  55  40 SE6       30.14R
DRYDEN           N/A     86  67  52 SE6       29.96R
EL PASO        MOCLDY    92  48  22 NE10      29.98R
FORT STOCKTON  CLEAR     85  62  46 SE13      30.00R
GUADALUPE PASS CLOUDY    80  50  34 E15       30.16R
MARFA          MOCLDY   N/A N/A N/A SE10      30.12R
$$

TXZ014-016-019-021>030-083-300300
TEXAS TECH WEST TEXAS MESONET/TEXAS PANHANDLE/NORTHERN SOUTH PLAINS

CITY           SKY/WX    TMP DP  RH WIND       PRES   REMARKS
ABERNATHY 5ENE   N/A     71  62  72 S5        30.09R
AMARILLO 9NNE    N/A     80  62  55 E7        30.08R
AMARILLO 7SSE    N/A     78  59  52 E10       30.11R
AMHERST 1NE      N/A     70  62  75 S9        30.10F
BOOTLEG 11WNW    N/A     77  51  38 N8        30.17R
CANADIAN 6E      N/A     80  61  51 NE8       29.99R
CAPROCK CYN SP   N/A     72  64  75 NW6       30.06S
CHILDRESS 2NNE   N/A     85  63  48 SE10      29.94F
CLARENDON 2WSW   N/A     70  60  69 SW8       30.04F
CLAUDE 12SW      N/A     73  57  57 S7        30.10R
DIMMITT 2NE      N/A     75  59  58 SE6       30.12R
FLOYDADA 2NNE    N/A     74  56  51 SW7       30.06R
FRIONA 2NE       N/A     76  64  66 SE6       30.13R
GOODLETT 3W      N/A     83  67  56 SE8       29.92F
HART 3N          N/A     73  62  68 S5        30.10S
HEREFORD 2NW     N/A     80  54  40 SE6       30.11R
MCLEAN 1E        N/A     77  56  47 SW12      30.04R
MEMPHIS 1NE      N/A     74  64  70 NW7       30.00R
MULESHOE 2SSW    N/A     73  64  72 S1        30.11R
OLTON 6S         N/A     71  59  66 SE8       30.08S
PALO DURO SP     N/A     78  58  49 SE3       30.11R
PAMPA 2E         N/A     80  65  60 NE3       30.07R
PLAINVIEW 1S     N/A     74  59  59 S13       30.07F
SILVERTON 7ESE   N/A     72  63  73 N6        30.08F
TULIA 2ENE       N/A     72  65  78 SE6       30.09R
TURKEY 2WSW      N/A     74  62  67 NW13      30.02S
UMBARGER 3NNE    N/A     78  58  48 S6        30.11R
$$

TXZ033>036-039>041-045>048-300300
TEXAS TECH WEST TEXAS MESONET/SOUTH PLAINS

CITY           SKY/WX    TMP DP  RH WIND       PRES   REMARKS
AIKEN 3WSW       N/A     72  62  71 SW9       30.08S
ANDREWS 2NE      N/A     88  49  25 E3        30.03R
ANTON 6SSW       N/A     71  65  80 N3        30.08F
BROWNFIELD 2S    N/A     72  59  63 SW6       30.06F
DENVR CTY 7WNW   N/A     71  62  73 W1        30.09R
GAIL 2ESE        N/A     81  62  51 NW2       29.99S
LAMESA 2SE       N/A     84  53  33 N7        30.04R
LEVELLAND 4S     N/A     71  61  70 SE1       30.09S
LUBBOCK 3WNW     N/A     73  60  62 S3        30.06R
MORTON 1ENE      N/A     72  63  73 E6        30.11R
ODONNELL 1N      N/A     83  51  32 N14       30.05R
PLAINS 3N        N/A     69  63  79 NE5       30.11R
RALLS 1SE        N/A     73  61  67 W7        30.06R
REESE CENTER     N/A     71  64  78 SW3       30.06F
SEAGRAVES 1SW    N/A     71  63  75 E10       30.07F
SLATON 2NE     LGT RAIN  70  62  77 E6        30.06F
SNYDER 3E        N/A     83  62  49 SE3       29.98R
SUNDOWN 8SW      N/A     67  60  78 E3        30.10R
TAHOKA 3NNE      N/A     76  60  56 N12       30.06F
WOLFFORTH 6SSW   N/A     72  66  82 NE8       30.06F
$$

TXZ031-032-036>038-042>044-300300-
TEXAS TECH WEST TEXAS MESONET/ROLLING PLAINS

CITY           SKY/WX    TMP DP  RH WIND       PRES   REMARKS
ASPERMONT 3NE    N/A     84  61  45 SE2       29.95R
FLUVANNA 3WNW    N/A     82  57  41 NE1       30.01R
GRAHAM 5SSW      N/A     80  55  40 N15       30.03R
GUTHRIE 10WSW    N/A     84  60  44 SE8       29.96R
HASKELL 1NW      N/A     86  61  43 E3        29.94R
JAYTON 1SSE      N/A     82  64  53 SE6       29.97R
KNOX CITY 3NW    N/A     88  59  37 SE7       29.94R
LK A HENRY 1NW   N/A     84  60  42 W5        29.98R
NORTHFIELD 1S    N/A     81  64  55 NW10      29.98R
ODELL 4ENE       N/A     87  65  47 SE8       29.93F
PADUCAH 10SW     N/A     85  59  41 S6        29.96R
POST 1NE         N/A     80  56  44 NW13      30.02S
RRING SPRGS 3N   N/A     80  61  53 W10       30.02R
SPUR 1W          N/A     81  57  43 NW9       29.99R
WEINERT 2NNE     N/A     86  66  50 SE7       29.94R
WHITE RVR 6NE    N/A     79  58  49 W12       30.02R
$$

TXZ052-054-060>062-072-078-127-140-154-169-300300-
TEXAS TECH WEST TEXAS MESONET/PERMIAN BASIN/
CONCHO VALLEY/BIG COUNTRY/EDWARDS PLATEAU

CITY           SKY/WX    TMP DP  RH WIND       PRES   REMARKS
COYANOSA 2N      N/A     89  56  33 E7        29.96R
JUNCTION 1SSW    N/A     82  69  64 S2        29.98R
MERTZON 3NNE     N/A     81  69  66 S6        29.99S
SAN ANGELO 7NW   N/A     85  65  51 S8        29.96S
STRLNG CT 4WSW   N/A     85  65  51 SE5       29.99F
ST LAWRNCE 5SW   N/A     86  62  44 SE14      30.00S
SWEETWATR 11SW   N/A     84  66  54 S1        30.01R
WALL 1E          N/A     85  67  54 S7        29.97R
$$

TXZ055-058-074-075-080-082-300300-
TEXAS TECH WEST TEXAS MESONET/FAR WEST/SOUTHWEST MOUNTAINS/TRANS PECOS

CITY           SKY/WX    TMP DP  RH WIND       PRES   REMARKS
$$



USA.gov is the U.S. government's official web portal to all federal, state and local government web resources and services.